Wetbulb
59.24 58.83 58.55 58.29 57.56 56.58 56.08 55.97 55.92 56.58 56.67 56.60 57.15 56.77 56.24 56.29 55.02 52.48 49.06 53.19 54.46 59.68 59.62 54.35 52.57 50.92 50.56 47.43 49.96 46.18 37.45 36.65 39.90 46.38 48.25 52.28 50.90 55.67 56.21 53.56 55.56 58.62 60.45 62.27 61.86
59.45 58.89 58.23 58.37 57.35 56.92 55.97 55.81 55.26 56.14 56.40 56.59 56.82 56.64 56.23 55.60 50.88 49.78 56.12 60.64 61.10 61.75 53.55 51.23 50.34 49.93 44.95 45.79 46.95 43.64 37.13 40.02 50.09 51.08 49.43 51.74 51.74 52.72 52.73 53.00 54.35 55.62 61.62 62.22 60.54
59.35 58.80 58.14 57.99 57.40 56.96 55.54 55.85 54.92 55.87 56.14 56.17 56.47 56.21 55.31 54.04 50.23 54.62 62.82 60.90 62.05 60.90 52.98 52.44 52.47 50.12 45.34 46.69 46.20 43.59 40.99 45.02 51.83 52.79 52.48 50.79 52.68 54.67 52.24 49.74 53.05 53.33 56.31 59.66 60.27
58.76 58.29 58.04 57.58 57.44 56.71 55.14 54.74 55.21 55.43 55.98 56.13 55.88 55.60 55.01 51.68 45.71 54.89 62.98 62.40 62.38 56.08 53.19 51.54 50.87 46.21 44.67 43.26 46.43 41.39 46.69 47.52 53.10 52.98 52.78 50.99 53.60 50.76 49.53 52.21 54.60 55.16 57.15 58.97 60.37
57.82 57.79 57.71 57.29 56.75 56.59 55.06 54.37 54.70 55.46 55.69 55.48 55.36 54.72 51.60 50.22 52.83 60.70 62.06 61.93 55.95 53.93 51.64 51.06 49.94 47.14 43.91 45.31 46.02 44.60 46.45 49.31 54.54 54.25 52.84 54.29 52.37 52.19 50.63 53.72 57.75 59.34 59.24 59.45 60.59
57.42 57.27 57.14 56.98 56.60 56.22 55.29 54.38 54.50 55.28 55.23 55.43 54.70 54.42 49.52 47.61 58.96 61.13 58.40 56.01 53.57 52.19 53.35 52.95 50.41 49.59 47.35 47.12 45.85 47.67 46.82 47.81 51.37 53.24 53.94 51.98 52.23 51.21 52.33 54.61 55.51 58.06 58.65 59.71 60.69
57.60 57.19 56.74 56.55 56.17 55.38 55.12 54.12 53.87 54.87 55.30 54.87 54.19 52.10 50.21 48.98 56.05 56.43 58.69 54.52 52.93 53.51 51.72 53.55 52.93 51.01 50.13 47.68 51.66 49.09 44.39 44.88 48.05 50.83 50.86 52.07 46.18 46.07 53.36 55.34 54.56 55.20 58.06 57.51 59.36
57.80 57.09 56.33 55.90 54.95 54.40 54.36 53.66 53.99 54.83 54.89 54.62 53.91 50.62 47.99 59.12 56.15 55.84 54.65 53.91 54.56 54.90 54.69 54.42 55.12 52.21 49.98 50.41 49.13 44.54 43.46 39.85 45.57 50.58 50.99 48.85 39.63 49.56 51.83 53.31 51.93 53.81 55.09 55.85 56.50
57.33 56.87 56.13 55.13 54.21 53.89 53.70 53.91 54.24 54.99 54.73 54.21 49.84 49.65 49.95 60.39 55.41 56.51 55.87 55.54 55.99 55.24 54.83 56.44 53.14 49.60 49.40 44.19 41.11 41.64 37.11 40.64 43.43 49.16 48.68 46.25 41.96 50.29 52.41 53.62 52.53 53.07 53.27 53.98 54.10
57.02 56.70 55.87 54.81 54.01 53.56 53.45 54.08 54.22 53.40 53.22 53.30 52.92 47.14 52.45 53.56 55.47 55.81 55.61 56.14 54.75 54.69 52.89 51.36 47.56 43.93 44.19 41.38 33.98 39.32 40.08 39.50 40.11 45.45 47.83 43.74 42.89 46.57 51.35 52.65 52.57 51.26 51.94 53.19 53.18
56.84 56.54 55.68 54.52 53.97 53.81 51.75 50.48 48.12 48.13 49.05 48.66 50.09 49.84 52.68 55.14 55.21 53.19 54.93 54.28 53.59 51.54 45.46 48.46 42.05 39.36 42.86 45.78 45.79 44.93 42.07 40.16 42.20 45.34 46.22 44.30 43.55 45.30 47.37 50.66 50.12 51.85 53.68 54.11 53.71
56.43 56.05 55.62 54.46 53.97 54.07 50.93 48.87 52.92 52.52 47.94 53.68 52.41 52.61 53.68 55.04 50.83 52.12 54.16 49.88 49.90 44.92 48.38 44.72 40.22 46.07 48.49 48.12 45.88 45.43 43.34 42.14 43.30 45.71 43.76 43.14 41.91 45.09 47.21 48.53 51.96 49.99 51.55 53.21 54.18
56.10 55.78 55.05 53.85 53.91 52.19 49.52 50.91 55.32 54.10 47.32 52.48 54.98 52.85 51.55 53.56 50.21 50.06 51.59 50.20 47.43 45.67 46.61 42.61 45.30 49.99 47.86 45.69 44.40 44.81 42.11 41.67 41.61 41.58 40.83 42.23 39.36 43.46 46.82 49.65 52.26 52.90 54.27 55.45 55.00
55.39 54.91 53.77 53.16 49.57 51.39 50.14 54.84 54.33 52.98 42.31 47.52 50.75 52.31 52.56 52.76 48.68 53.34 53.12 51.27 48.62 46.10 46.26 44.56 49.51 47.56 46.17 44.52 45.76 41.27 47.15 45.58 44.78 41.71 34.42 42.69 32.41 42.57 45.88 47.54 49.48 50.64 51.30 54.67 55.01
54.93 54.40 53.15 53.11 51.16 51.23 56.54 58.30 54.92 54.41 31.59 48.65 49.80 55.54 53.12 49.81 49.84 49.29 54.88 52.35 46.01 47.13 46.97 44.09 46.25 45.25 44.29 44.85 47.45 43.48 46.92 45.28 45.83 42.36 40.67 40.68 35.95 38.98 46.26 44.47 47.69 47.49 50.44 50.83 55.73
54.67 54.10 53.29 52.44 51.27 51.63 54.49 55.59 57.33 43.00 32.17 46.26 49.94 48.11 47.65 49.11 48.79 49.01 49.53 51.75 51.89 47.76 47.52 46.87 49.31 48.05 46.75 48.61 48.12 48.61 46.44 45.78 44.36 40.68 31.65 39.80 38.01 38.10 41.17 45.35 46.86 49.87 51.96 52.74 52.57
54.21 53.90 53.10 54.44 49.66 56.07 54.02 53.62 40.79 32.29 47.11 44.23 44.50 47.49 46.00 45.05 45.88 46.37 45.66 43.86 42.18 39.24 39.54 44.24 45.93 48.15 50.55 45.80 47.87 46.24 40.83 32.55 30.53 29.23 29.82 42.80 38.60 40.21 45.80 47.34 49.70 50.21 50.73 49.91 54.12
53.87 53.17 53.23 53.52 54.67 55.50 55.55 48.44 35.89 42.12 42.98 48.15 46.32 46.12 42.71 45.15 44.60 45.18 44.05 41.16 44.11 43.12 40.79 39.15 36.27 45.22 48.50 45.12 44.02 42.80 41.55 33.77 27.28 29.18 31.93 43.01 36.56 40.52 47.90 50.58 51.44 51.76 50.34 51.49 53.71
53.33 52.53 51.39 52.17 53.62 53.93 51.82 40.66 37.67 44.02 45.68 46.01 44.63 41.71 41.65 44.76 43.67 43.00 42.87 42.19 43.55 43.87 38.87 38.38 39.52 47.95 49.38 49.11 46.84 43.53 37.89 45.69 37.12 37.30 32.99 36.06 40.53 46.10 47.84 47.81 48.67 48.79 49.72 52.20 53.01
51.48 50.19 49.69 53.72 55.27 52.55 47.42 41.10 44.89 48.82 49.14 47.49 41.16 42.97 39.25 41.91 41.51 41.21 41.13 44.66 44.92 48.49 48.46 43.51 38.26 45.25 47.22 49.23 47.95 44.38 45.92 37.20 36.87 28.07 26.47 32.71 34.94 38.07 43.28 45.23 48.04 47.50 50.82 52.17 52.56
51.16 46.57 50.68 54.58 54.30 49.56 39.35 42.57 46.70 51.26 50.16 47.72 44.04 42.35 42.69 42.77 42.07 41.08 41.96 44.89 46.75 47.91 48.23 44.95 43.00 42.56 46.46 44.09 41.86 42.06 40.30 40.62 39.87 34.87 28.17 25.75 32.24 41.68 43.18 45.58 46.44 49.48 52.57 53.05 52.66
50.00 42.11 52.19 55.40 42.82 42.67 40.15 45.40 47.49 49.17 51.43 49.12 48.39 46.80 43.60 45.53 42.50 41.37 41.59 46.57 49.18 49.28 44.90 45.54 41.90 35.38 42.30 47.13 48.01 45.29 43.10 42.53 30.53 32.07 31.76 29.08 31.86 43.90 43.79 45.74 46.96 47.28 52.13 53.21 53.28
46.27 46.95 53.49 52.16 36.62 38.05 42.39 45.85 48.34 48.11 48.38 48.13 47.28 48.44 47.73 45.69 41.92 43.38 46.07 49.90 50.36 48.62 45.20 46.33 39.48 29.70 35.21 41.13 45.48 42.40 43.78 43.83 43.22 36.41 31.82 25.81 31.57 44.56 45.33 44.20 46.06 46.00 48.13 52.06 52.50
46.91 41.49 48.93 49.80 45.14 41.26 39.97 42.72 44.41 50.14 49.16 49.85 48.58 48.93 46.27 44.17 46.87 43.24 45.13 49.41 50.25 48.16 45.77 47.83 42.66 36.44 29.95 36.77 42.53 39.96 43.43 43.76 40.39 30.17 30.94 32.07 37.77 42.09 42.64 43.77 44.78 45.94 45.92 48.77 51.89
46.66 42.14 48.04 41.69 43.31 42.06 43.81 44.45 44.40 44.58 49.14 49.71 47.24 46.92 44.96 40.49 43.14 42.83 46.37 46.78 49.14 46.49 46.83 45.21 37.74 40.33 42.39 44.28 44.50 43.08 43.04 43.69 40.65 39.82 34.00 37.65 39.86 42.77 42.38 43.25 43.93 45.75 46.56 47.10 48.07
44.46 43.41 48.41 45.21 45.88 44.30 42.52 43.71 44.97 46.30 47.28 45.95 45.86 46.82 45.76 42.92 45.00 42.44 46.63 45.60 44.35 45.92 44.51 45.87 37.85 38.15 36.55 43.23 41.87 38.84 41.67 41.84 41.41 41.71 39.67 40.02 39.56 44.11 45.01 45.01 44.80 45.45 45.86 46.53 46.94
47.61 49.32 48.47 44.38 44.69 42.32 41.66 45.26 45.96 47.91 48.59 49.37 48.84 46.96 44.82 48.12 49.85 49.48 50.03 49.47 48.86 45.13 42.78 41.89 36.14 32.87 30.61 37.18 36.05 28.40 36.09 39.98 41.29 42.02 40.75 35.19 40.00 43.52 43.80 44.98 44.36 44.82 46.24 46.34 46.99
MSLP
1020.79 1020.62 1020.50 1020.45 1020.29 1020.24 1020.03 1019.74 1019.45 1019.05 1018.59 1018.17 1017.83 1017.46 1017.11 1016.88 1016.28 1015.40 1014.48 1011.56 1011.71 1011.23 1011.54 1011.58 1011.41 1011.39 1011.53 1011.26 1010.70 1010.64 1011.84 1011.70 1010.72 1011.23 1011.76 1012.30 1011.89 1012.59 1012.45 1013.24 1013.08 1013.08 1013.51 1015.32 1016.36
1020.50 1020.32 1020.21 1020.26 1020.20 1020.12 1019.92 1019.57 1019.24 1018.91 1018.36 1018.03 1017.66 1017.40 1017.14 1016.83 1015.98 1014.21 1010.60 1010.39 1010.86 1010.86 1011.41 1011.46 1011.15 1011.13 1011.64 1010.89 1010.59 1010.60 1011.01 1010.62 1010.49 1010.57 1011.50 1011.80 1011.83 1011.69 1012.37 1012.81 1014.00 1014.48 1015.97 1015.68 1016.59
1020.28 1020.13 1020.05 1020.05 1019.96 1019.82 1019.75 1019.47 1019.13 1018.69 1018.17 1017.94 1017.60 1017.22 1017.05 1016.76 1015.44 1011.00 1009.36 1009.64 1010.42 1010.76 1011.00 1010.96 1010.76 1010.82 1011.00 1010.42 1010.18 1009.99 1010.06 1009.56 1010.28 1010.10 1010.71 1011.36 1011.38 1011.72 1012.08 1013.44 1013.71 1014.72 1015.67 1016.56 1016.88
1020.05 1020.00 1019.92 1019.84 1019.78 1019.59 1019.37 1019.24 1018.88 1018.48 1018.08 1017.82 1017.53 1016.96 1016.81 1016.60 1013.75 1009.80 1009.37 1009.69 1010.38 1010.72 1011.10 1010.76 1010.51 1010.52 1010.29 1010.03 1009.19 1009.58 1008.82 1008.74 1009.39 1010.20 1010.79 1011.53 1011.57 1011.56 1011.66 1013.23 1013.59 1013.83 1014.49 1015.62 1016.34
1019.83 1019.80 1019.76 1019.64 1019.56 1019.48 1019.15 1019.06 1018.68 1018.27 1017.93 1017.76 1017.55 1017.09 1016.60 1015.40 1011.78 1009.46 1009.74 1010.28 1010.64 1010.75 1010.69 1010.48 1010.23 1009.72 1009.61 1009.21 1008.87 1008.76 1008.09 1007.99 1008.22 1009.24 1010.90 1011.00 1010.91 1011.47 1011.97 1012.93 1013.33 1013.28 1014.14 1014.69 1015.28
1019.54 1019.54 1019.53 1019.35 1019.33 1019.26 1018.95 1018.77 1018.58 1018.16 1017.79 1017.66 1017.65 1017.43 1016.88 1013.72 1009.34 1009.47 1009.71 1010.45 1010.44 1010.41 1009.90 1009.84 1009.44 1008.97 1008.99 1008.79 1008.51 1007.49 1007.60 1007.95 1008.06 1009.07 1010.10 1010.39 1011.40 1011.27 1011.68 1011.97 1012.66 1013.01 1013.01 1013.45 1013.92
1019.14 1019.18 1019.17 1019.05 1018.99 1019.00 1018.79 1018.63 1018.36 1018.00 1017.70 1017.73 1017.79 1017.62 1015.90 1011.68 1009.09 1009.39 1009.53 1009.94 1009.74 1009.70 1009.73 1009.34 1009.06 1008.94 1008.92 1008.80 1008.22 1007.57 1007.78 1007.76 1008.11 1008.47 1009.58 1010.00 1011.80 1011.50 1010.95 1011.65 1012.32 1012.60 1012.51 1013.33 1013.26
1018.61 1018.78 1018.87 1018.80 1018.76 1018.76 1018.53 1018.36 1018.14 1017.81 1017.59 1017.63 1017.78 1017.54 1014.26 1009.57 1008.94 1009.15 1009.20 1009.29 1009.17 1009.10 1009.24 1008.83 1008.77 1008.84 1009.25 1008.98 1008.69 1008.22 1008.28 1008.36 1008.04 1008.32 1009.22 1009.23 1010.89 1011.37 1011.33 1011.65 1012.22 1012.25 1012.28 1012.92 1012.96
1018.22 1018.45 1018.48 1018.55 1018.58 1018.55 1018.24 1018.02 1017.88 1017.49 1017.47 1017.51 1017.59 1016.75 1012.63 1009.20 1008.90 1008.20 1008.40 1008.64 1008.63 1008.86 1008.83 1008.92 1009.01 1009.34 1009.46 1009.71 1009.61 1008.95 1009.03 1008.69 1008.42 1007.81 1008.50 1009.17 1010.26 1010.99 1010.93 1011.44 1011.95 1012.16 1012.32 1012.71 1013.15
1017.90 1018.20 1018.20 1018.24 1018.41 1018.36 1018.00 1017.60 1017.34 1017.29 1016.94 1017.10 1016.49 1015.77 1011.56 1008.88 1007.84 1007.58 1007.77 1008.04 1008.49 1008.97 1009.37 1009.48 1009.77 1009.87 1009.93 1009.99 1010.03 1009.87 1009.60 1009.02 1008.57 1008.12 1008.24 1009.13 1009.47 1010.24 1010.27 1010.54 1011.47 1011.88 1012.23 1012.82 1013.22
1017.57 1017.89 1017.99 1018.05 1018.15 1018.23 1018.18 1017.26 1017.29 1016.98 1016.34 1014.44 1013.07 1011.75 1009.16 1008.11 1006.98 1007.27 1007.35 1008.06 1008.63 1009.58 1010.13 1009.99 1010.56 1010.39 1010.04 1009.87 1009.60 1009.78 1009.47 1009.16 1008.14 1007.91 1008.16 1008.89 1009.24 1009.78 1009.97 1010.68 1011.38 1011.89 1012.38 1012.33 1012.76
1017.22 1017.53 1017.78 1017.88 1018.03 1018.11 1018.38 1017.37 1014.71 1014.90 1013.89 1012.11 1011.24 1010.49 1009.08 1008.19 1007.61 1007.13 1007.46 1008.35 1008.88 1009.96 1010.03 1010.61 1010.61 1010.08 1009.72 1010.02 1009.70 1009.60 1009.35 1008.74 1007.77 1007.34 1008.18 1008.91 1009.47 1009.47 1009.70 1010.46 1010.94 1011.57 1011.95 1012.20 1012.56
1016.88 1017.32 1017.59 1017.74 1017.88 1018.17 1017.50 1015.71 1013.41 1014.01 1013.64 1010.29 1009.22 1008.97 1008.23 1007.89 1007.55 1007.12 1007.50 1007.99 1009.01 1009.97 1010.44 1011.10 1010.69 1010.06 1009.86 1009.80 1009.79 1009.72 1009.45 1008.81 1008.39 1008.16 1008.37 1008.98 1010.24 1010.60 1010.06 1009.79 1010.73 1010.85 1011.03 1011.45 1011.96
1016.55 1017.08 1017.46 1017.82 1018.34 1016.93 1016.06 1013.62 1013.67 1014.68 1013.66 1009.40 1007.82 1007.37 1007.24 1007.31 1007.22 1006.69 1007.12 1008.18 1008.92 1009.97 1011.07 1011.05 1010.01 1010.03 1009.96 1009.80 1009.06 1009.00 1008.82 1008.83 1008.90 1009.40 1009.94 1009.84 1011.36 1011.13 1010.67 1010.19 1010.27 1010.41 1010.64 1011.05 1011.57
1016.16 1016.66 1017.26 1017.27 1017.40 1016.37 1014.45 1013.56 1013.32 1014.20 1012.47 1007.40 1006.53 1005.70 1006.30 1007.01 1006.68 1006.54 1006.73 1007.70 1008.58 1009.87 1010.92 1010.76 1010.31 1010.15 1010.23 1009.49 1008.82 1008.82 1008.73 1009.04 1009.63 1010.54 1011.22 1011.36 1011.65 1011.23 1010.52 1010.83 1010.57 1010.72 1010.71 1010.64 1010.82
1015.73 1016.27 1017.21 1017.70 1017.45 1015.63 1014.32 1014.04 1013.65 1013.87 1010.73 1006.87 1005.93 1005.95 1006.57 1006.74 1006.84 1006.77 1006.75 1007.23 1008.04 1009.47 1010.18 1009.99 1009.53 1009.67 1009.25 1008.69 1008.44 1008.58 1009.12 1009.72 1010.55 1011.75 1012.42 1011.46 1011.30 1011.40 1011.05 1009.82 1010.13 1010.17 1009.80 1010.12 1011.14
1015.20 1015.77 1016.68 1016.33 1015.67 1014.75 1014.41 1014.79 1014.34 1012.36 1008.46 1006.59 1006.11 1006.21 1006.59 1006.74 1006.93 1006.92 1007.11 1007.76 1008.68 1009.46 1010.07 1010.04 1009.60 1009.64 1009.08 1009.09 1008.91 1009.24 1010.04 1011.44 1012.57 1013.37 1013.66 1012.61 1011.79 1010.17 1009.37 1009.25 1009.06 1008.60 1009.28 1010.40 1010.73
1014.78 1015.32 1015.90 1015.67 1015.13 1015.48 1015.07 1014.98 1013.15 1009.96 1007.86 1005.86 1005.79 1006.21 1006.64 1006.64 1006.87 1006.97 1007.41 1008.18 1008.34 1008.98 1009.76 1010.31 1010.44 1010.59 1009.96 1009.82 1009.29 1009.45 1010.37 1012.13 1013.76 1014.68 1014.05 1012.48 1011.25 1009.16 1007.70 1008.04 1008.83 1008.93 1009.66 1010.85 1011.32
1014.66 1015.19 1015.44 1015.17 1015.49 1016.19 1015.56 1013.90 1010.91 1008.73 1006.74 1006.20 1005.70 1006.03 1006.34 1006.36 1006.61 1007.02 1007.36 1007.82 1008.04 1008.40 1009.83 1010.77 1011.21 1010.59 1010.10 1009.64 1009.76 1009.30 1010.19 1010.74 1013.37 1014.88 1014.47 1012.96 1010.35 1008.69 1008.12 1008.87 1009.37 1009.75 1010.64 1011.20 1011.52
1013.94 1014.40 1014.08 1014.33 1015.10 1015.81 1014.95 1012.03 1010.02 1007.48 1005.68 1005.79 1005.85 1005.60 1006.00 1006.14 1006.67 1006.94 1007.23 1007.12 1007.53 1007.95 1008.80 1010.98 1011.54 1011.29 1010.69 1010.23 1009.04 1009.02 1009.79 1011.08 1012.34 1014.68 1014.91 1013.06 1011.28 1009.95 1009.31 1009.16 1009.26 1010.37 1010.80 1010.91 1011.50
1013.29 1013.21 1012.01 1013.51 1014.84 1014.96 1012.78 1011.06 1009.50 1006.92 1006.32 1005.80 1004.94 1005.16 1005.49 1005.76 1006.18 1006.71 1007.00 1006.91 1006.89 1008.24 1008.43 1010.82 1011.37 1011.36 1011.16 1010.54 1009.39 1009.18 1009.54 1010.51 1011.97 1013.74 1014.66 1013.83 1012.06 1009.80 1009.16 1008.97 1009.36 1009.84 1009.98 1010.32 1011.00
1011.79 1011.63 1010.87 1012.21 1014.00 1013.05 1011.58 1010.35 1008.98 1006.82 1006.14 1005.60 1004.69 1004.65 1004.93 1005.44 1006.08 1006.35 1006.69 1006.82 1006.10 1006.80 1008.64 1009.79 1010.85 1011.34 1010.56 1009.01 1008.44 1008.58 1009.28 1010.50 1012.42 1013.83 1014.25 1013.77 1012.13 1009.76 1008.95 1008.67 1008.55 1008.89 1009.50 1009.90 1010.37
1010.42 1010.87 1011.34 1010.20 1011.08 1010.88 1010.57 1009.80 1008.71 1007.06 1005.98 1005.18 1004.58 1004.55 1004.60 1005.33 1007.45 1005.83 1006.54 1006.91 1006.54 1007.15 1008.26 1009.09 1009.97 1010.69 1010.38 1009.63 1008.72 1008.63 1008.86 1009.64 1011.04 1012.62 1013.60 1013.55 1011.78 1009.65 1008.65 1008.42 1008.38 1008.48 1008.69 1009.53 1010.03
1009.32 1009.47 1010.22 1010.08 1008.46 1008.97 1009.32 1008.54 1007.98 1006.60 1006.02 1005.23 1004.57 1004.51 1004.67 1005.15 1005.81 1005.87 1006.81 1007.30 1007.30 1007.80 1008.31 1008.73 1009.83 1010.70 1010.84 1010.13 1009.36 1009.09 1009.08 1009.52 1010.46 1012.17 1012.71 1012.39 1011.18 1009.58 1008.83 1008.35 1008.29 1008.28 1008.48 1008.91 1009.42
1007.46 1006.52 1006.10 1006.92 1007.71 1007.67 1007.91 1007.57 1007.05 1006.23 1005.51 1004.77 1004.56 1004.35 1004.73 1004.87 1005.01 1005.57 1006.67 1007.76 1008.20 1008.45 1008.70 1009.17 1010.40 1010.85 1010.83 1010.48 1009.99 1009.44 1009.43 1009.65 1009.96 1010.47 1011.29 1011.00 1010.57 1009.26 1008.71 1008.54 1008.25 1008.29 1008.54 1008.81 1009.44
1005.86 1004.65 1005.19 1005.02 1006.51 1007.05 1006.52 1005.98 1005.76 1005.24 1004.81 1004.37 1004.56 1004.11 1004.38 1004.99 1005.18 1005.62 1006.41 1007.24 1007.96 1008.98 1009.15 1009.64 1011.11 1011.69 1011.95 1011.26 1010.75 1010.29 1009.62 1009.40 1009.41 1009.48 1009.69 1009.90 1009.69 1008.62 1008.33 1008.37 1008.71 1009.03 1009.10 1009.40 1009.68
1005.51 1003.88 1003.80 1004.72 1005.31 1005.99 1004.19 1004.50 1004.60 1004.58 1003.97 1003.60 1003.73 1004.12 1004.58 1004.99 1005.28 1005.90 1005.99 1006.91 1007.59 1008.69 1009.80 1010.69 1012.03 1013.29 1013.70 1013.04 1012.07 1011.23 1009.56 1009.08 1009.02 1009.09 1009.39 1009.72 1009.76 1009.32 1009.42 1009.50 1009.58 1009.65 1009.69 1009.98 1010.12
Wind_Speed
7 8 9 10 9 12 15 16 15 13 13 14 14 12 14 14 16 7 8 13 10 11 3 7 4 5 8 6 7 1 2 10 13 5 2 5 3 5 9 5 4 7 5 19 19
8 8 10 10 9 12 15 15 16 13 13 13 13 12 13 13 8 9 14 13 11 9 5 7 5 8 3 6 5 4 4 7 2 8 6 6 6 11 5 5 6 20 15 20 16
8 8 9 10 9 10 16 14 15 13 13 13 12 13 13 11 6 7 4 20 11 10 4 5 11 6 7 6 9 6 8 11 2 6 8 4 4 12 11 5 4 13 15 18 19
8 8 8 10 10 11 14 15 14 14 12 12 14 14 16 5 2 5 6 9 10 5 3 5 7 4 6 8 10 4 12 14 9 5 5 4 2 4 4 7 15 10 12 5 21
9 8 9 10 11 11 13 15 14 12 12 12 13 13 8 4 9 2 9 8 6 4 7 8 8 6 7 5 8 6 8 6 9 17 9 11 8 5 4 11 11 12 9 12 20
9 9 9 8 9 11 10 14 13 11 10 11 12 13 4 6 3 10 10 6 7 5 7 8 9 7 8 7 6 7 7 2 2 24 15 9 4 5 3 7 4 4 12 11 16
10 9 8 8 8 9 11 13 13 11 10 9 10 7 6 17 4 8 12 7 7 7 8 10 7 8 8 8 14 5 5 2 4 10 7 16 4 2 3 8 7 6 7 12 16
10 9 9 8 8 10 11 12 12 11 9 8 8 5 9 8 7 9 8 8 11 10 6 9 7 3 2 8 9 4 4 2 2 7 5 7 3 8 11 11 9 11 9 8 10
10 10 8 8 8 10 11 11 12 11 8 8 4 4 10 12 5 8 6 10 10 4 3 7 4 1 6 4 5 2 0 5 7 9 6 5 4 17 11 13 11 11 9 10 9
10 10 8 7 8 11 12 11 8 7 6 7 9 6 9 6 7 8 11 8 3 3 2 1 2 1 4 1 1 3 5 8 5 7 5 5 6 10 10 12 13 10 9 9 10
11 9 7 5 6 9 9 5 2 1 4 10 6 7 2 8 4 1 5 4 2 5 2 6 1 4 4 2 4 9 6 10 10 6 9 8 8 10 9 7 9 8 6 12 11
11 10 8 4 6 6 2 5 4 1 9 17 19 17 18 7 4 8 7 6 5 3 1 6 1 3 1 8 8 13 9 14 5 7 5 3 8 10 9 7 16 13 10 9 8
11 10 8 4 2 1 6 11 7 12 3 9 14 8 8 7 6 10 11 6 5 4 5 2 6 4 9 10 13 4 4 8 3 2 3 3 5 7 3 8 13 14 17 15 15
12 11 9 8 3 4 6 10 13 3 3 7 10 7 7 8 7 9 6 7 2 5 2 2 10 5 7 14 3 4 6 5 4 6 1 4 1 4 4 3 2 9 10 16 12
12 13 12 13 4 3 5 10 8 3 3 6 11 7 8 8 1 7 4 4 4 7 3 5 4 9 8 15 4 7 3 3 2 2 1 1 6 8 4 8 5 5 7 10 16
14 14 11 3 3 10 14 13 2 1 8 4 9 11 9 7 8 7 5 3 3 9 6 8 6 2 8 7 3 7 2 3 3 2 2 6 6 4 6 21 4 5 9 7 10
15 17 11 6 5 5 4 3 3 4 6 7 11 8 9 7 9 9 8 6 6 2 5 7 8 5 2 3 5 5 6 4 6 7 5 10 2 12 14 8 15 19 12 2 10
16 17 8 7 5 9 4 1 7 11 11 4 11 10 10 8 10 12 11 9 9 6 3 3 3 4 4 3 4 4 6 6 5 2 5 11 4 8 19 14 15 14 4 5 9
16 6 3 6 8 3 2 10 9 7 10 4 7 8 9 11 8 7 7 10 10 8 7 5 1 6 10 4 3 4 1 7 7 5 5 6 8 7 10 7 3 6 4 8 9
5 5 6 7 7 3 5 9 8 15 3 4 8 8 8 9 8 10 8 6 7 3 9 5 2 3 9 8 12 4 4 2 4 4 4 4 3 2 4 5 9 8 10 9 9
5 6 7 14 5 5 13 10 11 19 12 7 9 8 9 7 10 4 8 11 7 9 12 6 5 6 3 6 13 1 3 2 4 6 6 1 5 3 5 5 10 10 13 15 15
5 8 12 16 7 5 13 13 10 17 12 12 2 3 7 6 9 9 11 2 7 9 9 11 6 5 16 15 6 5 5 6 7 5 2 6 7 3 6 5 7 8 12 13 15
6 5 10 13 13 12 7 14 18 20 17 7 2 2 3 4 8 8 4 4 6 6 6 3 0 3 9 7 5 3 4 4 4 4 4 7 7 1 5 4 5 6 7 10 12
5 9 7 9 10 19 17 17 22 13 21 17 7 6 6 4 14 7 4 2 5 4 3 5 3 7 8 8 2 3 3 5 5 5 4 6 5 11 6 8 7 7 4 9 13
4 9 9 15 17 13 19 14 17 18 16 8 8 9 7 4 1 5 5 4 2 2 2 5 4 1 3 5 5 4 3 6 6 6 8 9 7 11 0 6 5 6 3 4 7
4 8 7 5 16 16 19 22 24 20 15 17 10 10 7 5 7 7 8 5 6 0 4 1 1 2 2 6 7 4 6 7 7 6 2 2 6 6 7 7 8 7 7 7 6
4 6 8 7 19 17 22 22 22 15 11 11 8 5 6 3 7 4 5 6 9 9 6 6 6 4 3 4 6 7 8 7 5 4 4 4 6 10 11 9 7 7 8 7 5
Wind_Direction
289 302 310 313 324 321 322 322 322 320 315 317 315 311 314 313 304 270 244 219 191 217 222 298 236 261 291 265 265 287 9 266 274 357 242 188 97 276 327 321 13 9 95 119 131
282 300 311 313 320 318 319 321 320 315 317 317 313 315 318 321 293 244 242 215 181 137 182 217 230 202 249 270 281 149 200 255 252 174 181 166 142 153 140 256 69 51 111 117 132
281 293 306 307 311 314 318 317 318 313 317 316 316 316 318 319 279 239 294 207 160 165 249 273 297 212 214 234 250 255 238 258 197 148 177 83 17 188 151 145 63 137 134 159 137
274 285 297 303 307 312 318 317 316 313 312 314 313 319 316 270 140 339 27 132 143 168 224 256 267 254 248 261 262 212 241 250 195 187 106 51 239 16 41 76 149 167 123 172 127
266 276 289 301 304 305 317 314 311 306 311 311 311 325 331 255 249 100 105 113 137 179 221 238 268 250 245 264 278 221 246 292 184 96 111 142 208 122 111 84 156 144 174 179 134
259 270 284 291 297 303 313 310 306 301 306 306 311 324 250 274 118 139 120 137 177 212 239 239 252 251 243 266 298 223 233 277 167 137 157 145 170 103 256 118 80 146 171 147 149
249 261 275 283 291 305 309 306 302 302 302 305 315 305 266 244 252 136 144 181 196 205 252 282 308 36 340 338 326 346 24 9 92 141 180 110 91 229 121 163 189 215 167 130 155
237 251 268 280 292 297 300 300 293 293 296 295 302 293 254 265 252 271 200 210 215 214 223 296 350 12 18 307 336 331 27 98 175 129 180 124 260 205 225 178 207 163 146 145 150
234 244 258 277 291 297 293 291 288 276 273 281 280 217 265 312 229 235 200 220 206 213 265 283 32 304 329 311 337 345 226 282 293 170 136 111 178 201 211 183 162 157 162 148 133
231 241 249 266 290 298 298 283 279 297 245 243 255 306 264 233 220 210 227 230 144 178 296 14 283 298 329 7 125 97 265 272 239 230 130 173 161 164 188 154 154 167 151 144 141
225 229 237 254 285 301 327 310 321 170 248 209 204 250 303 295 145 304 143 126 120 83 184 248 109 208 205 293 351 314 258 266 272 218 166 187 181 191 173 158 130 119 121 155 151
220 216 219 230 281 302 315 260 230 12 294 230 245 251 271 289 297 221 135 152 154 169 245 357 195 287 88 209 254 272 302 269 260 172 139 125 196 189 179 159 154 160 197 177 142
212 206 192 202 294 231 225 242 293 20 294 273 210 224 228 221 241 260 158 183 114 138 46 108 263 299 266 295 291 291 286 322 68 8 358 71 31 15 292 172 168 182 189 174 163
201 190 173 123 97 215 231 248 242 152 332 253 182 228 223 231 234 245 228 132 182 123 30 245 274 229 270 276 303 175 233 327 23 33 235 87 205 354 315 9 279 190 172 181 166
192 178 171 174 339 280 319 337 162 78 324 232 172 198 187 187 226 259 160 97 190 134 128 257 278 282 256 261 285 242 230 247 252 153 356 326 108 275 171 231 280 320 283 187 169
189 172 156 207 242 253 302 317 45 52 250 221 159 181 192 189 232 262 146 158 178 141 193 223 208 133 211 269 287 293 319 290 333 73 82 235 129 265 184 225 201 294 258 201 150
185 165 168 173 215 329 264 335 81 179 273 185 154 160 206 173 222 234 173 219 156 155 200 218 258 234 290 297 351 45 53 344 6 11 232 3 103 222 219 186 196 211 230 221 134
182 162 214 228 305 355 341 172 208 205 243 335 159 175 190 204 214 241 168 205 239 207 151 154 333 13 14 277 210 237 151 150 162 205 274 359 249 241 208 193 212 207 197 159 132
166 173 192 224 240 325 226 214 196 230 201 222 178 171 205 218 167 217 200 200 204 215 142 123 222 327 309 321 269 305 327 168 107 324 53 247 298 28 97 168 199 190 183 167 129
174 172 200 163 158 190 231 222 239 247 285 256 218 172 194 221 178 179 209 224 227 139 112 201 82 314 267 342 297 199 234 43 1 138 240 295 344 180 122 149 177 200 184 151 146
190 191 179 155 123 216 215 220 243 260 266 263 212 180 208 204 169 197 207 235 175 175 96 142 117 281 18 237 241 262 260 225 145 133 170 142 282 186 84 152 152 190 177 169 170
187 196 155 148 164 199 221 213 247 254 262 267 265 202 210 195 192 187 206 286 192 148 146 200 154 148 223 230 182 182 191 179 121 265 182 144 269 209 131 160 157 171 188 183 174
176 161 175 164 194 213 205 229 242 256 263 265 194 213 248 128 326 193 99 312 14 89 134 156 234 50 346 349 326 221 229 231 126 89 189 128 258 198 170 181 170 173 159 175 177
175 178 163 216 216 191 194 209 225 250 261 255 215 262 296 230 196 194 122 32 18 90 146 105 153 150 184 216 232 342 344 295 162 112 203 208 271 300 262 214 211 188 156 163 180
212 198 173 189 208 197 187 200 209 227 219 235 244 206 208 234 203 166 99 111 89 225 112 115 156 277 300 323 341 267 215 286 267 211 148 233 216 254 350 117 40 174 182 176 126
195 186 154 170 179 203 186 210 207 220 234 227 223 211 220 187 177 200 126 152 173 151 134 114 209 82 309 326 12 347 311 298 302 308 317 269 252 219 173 110 74 67 66 91 56
226 286 162 183 180 188 200 197 213 209 236 220 208 172 194 189 116 85 128 144 152 144 176 130 123 91 248 351 4 346 236 234 237 273 253 293 307 60 52 57 47 41 61 45 59